Zurück zum Katalog

MOLNIYA 3-50

AktivKommunikationHEO
NORAD 25847·PAYLOAD·🇷🇺 Russia

Gestartet Jul 8, 1999 von Plesetsk Cosmodrome

Loading…

Nächste Überflüge (nächste 24 Stunden)

TLE

AktuellSource: Space-Track

Epoche: Sep 11, 2026, 17:58 UTC

1 25847U 99036A   26254.74907002  .00000143  00000-0  00000-0 0  9999
2 25847  63.5320 146.7466 6762528 276.2706  16.6283  2.00636391199158

Verfolge MOLNIYA 3-50 in Echtzeit mit AllMySat

Download on the App Store